パンスターズ彗星

C/2021 B2 ( PanSTARRS )

English version
Home page
Updated on December 16, 2022

---------------------------------------------------------------------

・ プロフィール

発見日 2021年1月17日
発見光度 19.9等
発見者 Pan-STARRS 1 telescope (Haleakala)

・ 写真集

・ 軌道要素

Epoch 2022 Jan. 21.0 TT = JDT 2459600.5
T 2021 May 4.26804 TT                                   Rudenko
q   2.5129135            (2000.0)            P               Q
z  +0.0028459      Peri.  334.96793     -0.17382286     -0.82918578
 +/-0.0000039      Node   120.55369     +0.97502912     -0.22062736
e   0.9928486      Incl.   38.09129     +0.13821663     +0.51358982
From 85 observations 2020 Dec. 24-2022 Jan. 20, mean residual 0".5.

・ 光度変化

        m1 = 13.0 + 5 logΔ + 10.0 log r

---------------------------------------------------------------------

軌道要素はM.P.E.C. 2022-C56に掲載されたものです。
光度グラフはComet for Windowsで作成したものです。

---------------------------------------------------------------------

Copyright(C) Seiichi Yoshida (comet@aerith.net). All rights reserved.